N624JX KBFI-KCRQ

Flight info

Callsign N624JX
Flight time 2h 7m
Altitude 45000
Route ZIGED TAOMA J5 SUMMA Q9 REBRG LEGOZ4
Aircraft C750/M-SBDE3FGHRWXY/S

Departure

Time 2026-04-28 00:11
Airport King County International Airport - Boeing Field (KBFI)

Arrival

Time 2026-04-28 02:19
Airport McClellan-Palomar Airport (KCRQ)
Time Latitude Longitude Altitude Speed Heading
2026-04-27 23:57 47.53765 -122.30515 24 ft 0 kts 141°
2026-04-28 00:06 47.53756 -122.30506 25 ft 3 kts 153°
2026-04-28 00:06 47.53734 -122.30528 26 ft 5 kts 233°
2026-04-28 00:07 47.53719 -122.30574 24 ft 6 kts 272°
2026-04-28 00:07 47.53751 -122.30611 25 ft 8 kts 330°
2026-04-28 00:07 47.53800 -122.30652 24 ft 10 kts 330°
2026-04-28 00:07 47.53862 -122.30705 24 ft 10 kts 330°
2026-04-28 00:08 47.53919 -122.30754 24 ft 9 kts 330°
2026-04-28 00:08 47.53973 -122.30799 27 ft 9 kts 330°
2026-04-28 00:08 47.54026 -122.30843 24 ft 8 kts 325°
2026-04-28 00:08 47.54070 -122.30896 24 ft 8 kts 321°
2026-04-28 00:09 47.54109 -122.30951 25 ft 7 kts 290°
2026-04-28 00:09 47.54093 -122.31008 25 ft 6 kts 240°
2026-04-28 00:09 47.54071 -122.31065 24 ft 7 kts 240°
2026-04-28 00:09 47.54041 -122.31116 26 ft 6 kts 195°
2026-04-28 00:10 47.54019 -122.31107 24 ft 0 kts 149°
2026-04-28 00:10 47.54012 -122.31101 24 ft 6 kts 149°
2026-04-28 00:10 47.53685 -122.30825 24 ft 107 kts 150°
2026-04-28 00:11 47.52896 -122.30162 323 ft 137 kts 151°
2026-04-28 00:11 47.52055 -122.29439 1074 ft 140 kts 152°
2026-04-28 00:11 47.51192 -122.28702 1718 ft 151 kts 155°
2026-04-28 00:11 47.50240 -122.27896 2316 ft 164 kts 155°
2026-04-28 00:12 47.49204 -122.27020 2919 ft 180 kts 155°
2026-04-28 00:12 47.48050 -122.26046 3525 ft 202 kts 154°
2026-04-28 00:12 47.46767 -122.24950 4141 ft 224 kts 153°
2026-04-28 00:12 47.45337 -122.23724 4786 ft 245 kts 153°
2026-04-28 00:13 47.43802 -122.22412 5448 ft 262 kts 152°
2026-04-28 00:13 47.42215 -122.21053 6458 ft 265 kts 152°
2026-04-28 00:13 47.40593 -122.19668 7370 ft 273 kts 152°
2026-04-28 00:13 47.38923 -122.18247 8322 ft 282 kts 152°
2026-04-28 00:14 47.37222 -122.16798 9231 ft 290 kts 151°
2026-04-28 00:14 47.35459 -122.15295 10147 ft 296 kts 150°
2026-04-28 00:14 47.33617 -122.13753 10664 ft 312 kts 153°
2026-04-28 00:14 47.31489 -122.12902 11050 ft 326 kts 178°
2026-04-28 00:15 47.29182 -122.12794 11585 ft 338 kts 181°
2026-04-28 00:15 47.26788 -122.12716 12137 ft 350 kts 180°
2026-04-28 00:15 47.24315 -122.12554 12663 ft 362 kts 179°
2026-04-28 00:15 47.21760 -122.12366 13159 ft 373 kts 179°
2026-04-28 00:16 47.19132 -122.12213 13658 ft 383 kts 179°
2026-04-28 00:16 47.16438 -122.12071 14127 ft 392 kts 179°
2026-04-28 00:16 47.13680 -122.11906 14561 ft 400 kts 179°
2026-04-28 00:16 47.10873 -122.11729 15006 ft 407 kts 179°
2026-04-28 00:17 47.08021 -122.11557 15517 ft 412 kts 179°
2026-04-28 00:17 47.05147 -122.11391 16112 ft 415 kts 179°
2026-04-28 00:17 47.02250 -122.11220 16716 ft 418 kts 179°
2026-04-28 00:17 46.99327 -122.11044 17326 ft 422 kts 179°
2026-04-28 00:18 46.96372 -122.10868 17952 ft 426 kts 179°
2026-04-28 00:18 46.93399 -122.10692 18554 ft 430 kts 179°
2026-04-28 00:18 46.90425 -122.10046 18985 ft 436 kts 167°
2026-04-28 00:18 46.87492 -122.08874 19607 ft 438 kts 165°
2026-04-28 00:19 46.84541 -122.07633 20082 ft 444 kts 165°
2026-04-28 00:19 46.81545 -122.06470 20656 ft 447 kts 167°
2026-04-28 00:19 46.78519 -122.05347 21250 ft 450 kts 167°
2026-04-28 00:19 46.75477 -122.04168 21768 ft 455 kts 166°
2026-04-28 00:20 46.72421 -122.02945 22354 ft 457 kts 166°
2026-04-28 00:20 46.69330 -122.01738 22883 ft 461 kts 166°
2026-04-28 00:20 46.66217 -122.00552 23382 ft 465 kts 166°
2026-04-28 00:20 46.63088 -121.99348 23964 ft 466 kts 166°
2026-04-28 00:21 46.59910 -121.98365 24308 ft 469 kts 172°
2026-04-28 00:21 46.56682 -121.97603 24774 ft 471 kts 172°
2026-04-28 00:21 46.53433 -121.96813 25184 ft 475 kts 172°
2026-04-28 00:21 46.50165 -121.96003 25628 ft 478 kts 171°
2026-04-28 00:22 46.46870 -121.95201 26045 ft 482 kts 172°
2026-04-28 00:22 46.43554 -121.94408 26470 ft 485 kts 172°
2026-04-28 00:22 46.40214 -121.93603 26900 ft 489 kts 171°
2026-04-28 00:22 46.36847 -121.92784 27338 ft 492 kts 171°
2026-04-28 00:23 46.33459 -121.91964 27766 ft 496 kts 171°
2026-04-28 00:23 46.30043 -121.91145 28177 ft 499 kts 171°
2026-04-28 00:23 46.26649 -121.90330 28602 ft 503 kts 171°
2026-04-28 00:23 46.23140 -121.89484 29033 ft 506 kts 171°
2026-04-28 00:24 46.19663 -121.88648 29632 ft 505 kts 172°
2026-04-28 00:24 46.16243 -121.87829 30209 ft 505 kts 171°
2026-04-28 00:24 46.12761 -121.86998 30592 ft 508 kts 171°
2026-04-28 00:24 46.09275 -121.86164 31110 ft 508 kts 171°
2026-04-28 00:25 46.05787 -121.85329 31617 ft 508 kts 171°
2026-04-28 00:25 46.02300 -121.84497 32105 ft 509 kts 171°
2026-04-28 00:25 45.98816 -121.83669 32766 ft 505 kts 171°
2026-04-28 00:25 45.95364 -121.82847 33526 ft 501 kts 171°
2026-04-28 00:26 45.91879 -121.82019 34049 ft 502 kts 171°
2026-04-28 00:26 45.88476 -121.81212 34484 ft 502 kts 171°
2026-04-28 00:26 45.85029 -121.80395 34959 ft 502 kts 171°
2026-04-28 00:26 45.81581 -121.79578 35458 ft 502 kts 171°
2026-04-28 00:27 45.78135 -121.78764 35952 ft 501 kts 171°
2026-04-28 00:27 45.74697 -121.77952 36522 ft 500 kts 171°
2026-04-28 00:27 45.71265 -121.77143 36981 ft 500 kts 171°
2026-04-28 00:27 45.67825 -121.76334 37406 ft 502 kts 171°
2026-04-28 00:28 45.64380 -121.75523 37926 ft 502 kts 171°
2026-04-28 00:28 45.60936 -121.74714 38456 ft 502 kts 171°
2026-04-28 00:28 45.57490 -121.73905 38941 ft 502 kts 171°
2026-04-28 00:28 45.54053 -121.73100 39445 ft 499 kts 171°
2026-04-28 00:29 45.50631 -121.72299 39912 ft 498 kts 171°
2026-04-28 00:29 45.47214 -121.71500 40357 ft 498 kts 171°
2026-04-28 00:29 45.43797 -121.70702 40796 ft 497 kts 171°
2026-04-28 00:29 45.40383 -121.69906 41244 ft 497 kts 171°
2026-04-28 00:30 45.36974 -121.69112 41711 ft 496 kts 171°
2026-04-28 00:30 45.33567 -121.68320 42157 ft 495 kts 171°
2026-04-28 00:30 45.30173 -121.67531 42620 ft 494 kts 171°
2026-04-28 00:30 45.26778 -121.66743 43053 ft 494 kts 171°
2026-04-28 00:31 45.23388 -121.65958 43471 ft 494 kts 171°
2026-04-28 00:31 45.19998 -121.65173 43882 ft 493 kts 171°
2026-04-28 00:31 45.16611 -121.64390 44265 ft 493 kts 171°
2026-04-28 00:31 45.13226 -121.63608 44688 ft 493 kts 171°
2026-04-28 00:32 45.09835 -121.62826 44952 ft 494 kts 171°
2026-04-28 00:32 45.06427 -121.62041 45089 ft 500 kts 171°
2026-04-28 00:32 45.02971 -121.61246 45077 ft 507 kts 171°
2026-04-28 00:33 44.95915 -121.59625 45093 ft 520 kts 171°
2026-04-28 00:33 44.89917 -121.58251 45099 ft 530 kts 171°
2026-04-28 00:34 44.81383 -121.56300 45086 ft 538 kts 171°
2026-04-28 00:34 44.73969 -121.54611 45077 ft 540 kts 171°
2026-04-28 00:35 44.67773 -121.53202 45072 ft 538 kts 171°
2026-04-28 00:35 44.60371 -121.51523 45061 ft 539 kts 171°
2026-04-28 00:36 44.52964 -121.49847 45053 ft 539 kts 171°
2026-04-28 00:36 44.45547 -121.48173 45053 ft 539 kts 171°
2026-04-28 00:37 44.38147 -121.46508 45057 ft 539 kts 171°
2026-04-28 00:37 44.30734 -121.44843 45060 ft 539 kts 171°
2026-04-28 00:38 44.23319 -121.43183 45040 ft 540 kts 171°
2026-04-28 00:38 44.15948 -121.41536 45049 ft 539 kts 171°
2026-04-28 00:39 44.08534 -121.39885 45038 ft 539 kts 171°
2026-04-28 00:39 44.01128 -121.38239 45038 ft 538 kts 171°
2026-04-28 00:40 43.93726 -121.36598 45037 ft 539 kts 171°
2026-04-28 00:40 43.86323 -121.34961 45038 ft 538 kts 171°
2026-04-28 00:41 43.78923 -121.33322 45041 ft 538 kts 171°
2026-04-28 00:41 43.71524 -121.31676 45038 ft 539 kts 171°
2026-04-28 00:42 43.64129 -121.30045 45045 ft 538 kts 171°
2026-04-28 00:42 43.56740 -121.28411 45042 ft 538 kts 171°
2026-04-28 00:43 43.49349 -121.26787 45043 ft 537 kts 172°
2026-04-28 00:43 43.41960 -121.25163 45042 ft 538 kts 171°
2026-04-28 00:44 43.34574 -121.23547 45037 ft 537 kts 172°
2026-04-28 00:44 43.27188 -121.21932 45036 ft 536 kts 171°
2026-04-28 00:45 43.19814 -121.20326 45030 ft 537 kts 172°
2026-04-28 00:45 43.12434 -121.18720 45036 ft 537 kts 172°
2026-04-28 00:46 43.05060 -121.17122 45036 ft 537 kts 172°
2026-04-28 00:46 42.97681 -121.15525 45036 ft 537 kts 172°
2026-04-28 00:47 42.90306 -121.13934 45038 ft 537 kts 172°
2026-04-28 00:47 42.82981 -121.12356 45042 ft 536 kts 172°
2026-04-28 00:48 42.75612 -121.10774 45041 ft 537 kts 172°
2026-04-28 00:48 42.68240 -121.09194 45042 ft 536 kts 172°
2026-04-28 00:49 42.60872 -121.07620 45045 ft 537 kts 172°
2026-04-28 00:49 42.53500 -121.06048 45042 ft 536 kts 172°
2026-04-28 00:50 42.46139 -121.04482 45042 ft 536 kts 172°
2026-04-28 00:50 42.38778 -121.02920 45045 ft 535 kts 172°
2026-04-28 00:51 42.31419 -121.01362 45041 ft 536 kts 172°
2026-04-28 00:51 42.24056 -120.99807 45042 ft 536 kts 172°
2026-04-28 00:52 42.16687 -120.98254 45038 ft 536 kts 172°
2026-04-28 00:52 42.09337 -120.96709 45033 ft 534 kts 172°
2026-04-28 00:53 42.01998 -120.95171 45028 ft 534 kts 172°
2026-04-28 00:53 41.94645 -120.93632 45028 ft 534 kts 172°
2026-04-28 00:54 41.87305 -120.92100 45031 ft 534 kts 172°
2026-04-28 00:54 41.79961 -120.90570 45030 ft 535 kts 172°
2026-04-28 00:55 41.72625 -120.89046 45030 ft 532 kts 172°
2026-04-28 00:55 41.65348 -120.87538 45032 ft 533 kts 172°
2026-04-28 00:56 41.58017 -120.86021 45034 ft 532 kts 172°
2026-04-28 00:56 41.50707 -120.84513 45045 ft 532 kts 172°
2026-04-28 00:57 41.43393 -120.83007 45056 ft 533 kts 172°
2026-04-28 00:57 41.36067 -120.81503 45056 ft 532 kts 172°
2026-04-28 00:58 41.28749 -120.80003 45051 ft 532 kts 172°
2026-04-28 00:58 41.21428 -120.78506 45049 ft 532 kts 173°
2026-04-28 00:59 41.14112 -120.77013 45051 ft 532 kts 172°
2026-04-28 00:59 41.06796 -120.75524 45053 ft 532 kts 173°
2026-04-28 01:00 40.99474 -120.74004 45052 ft 532 kts 171°
2026-04-28 01:00 40.92183 -120.72225 45059 ft 533 kts 171°
2026-04-28 01:01 40.84891 -120.70475 45065 ft 532 kts 171°
2026-04-28 01:01 40.77624 -120.68708 45056 ft 531 kts 171°
2026-04-28 01:02 40.70349 -120.66965 45060 ft 531 kts 171°
2026-04-28 01:02 40.63078 -120.65212 45055 ft 531 kts 171°
2026-04-28 01:03 40.55803 -120.63471 45056 ft 531 kts 171°
2026-04-28 01:03 40.48528 -120.61728 45057 ft 531 kts 171°
2026-04-28 01:04 40.41251 -120.59992 45063 ft 531 kts 171°
2026-04-28 01:04 40.33980 -120.58259 45057 ft 531 kts 171°
2026-04-28 01:05 40.26711 -120.56532 45060 ft 530 kts 172°
2026-04-28 01:05 40.19436 -120.54806 45056 ft 531 kts 171°
2026-04-28 01:06 40.12167 -120.53085 45056 ft 531 kts 172°
2026-04-28 01:06 40.04897 -120.51369 45061 ft 531 kts 172°
2026-04-28 01:07 39.97628 -120.49656 45040 ft 531 kts 172°
2026-04-28 01:07 39.90358 -120.47946 45053 ft 531 kts 172°
2026-04-28 01:08 39.83085 -120.46240 45061 ft 531 kts 172°
2026-04-28 01:08 39.75810 -120.44536 45068 ft 530 kts 172°
2026-04-28 01:09 39.68548 -120.42840 45075 ft 531 kts 172°
2026-04-28 01:09 39.61280 -120.41145 45074 ft 531 kts 172°
2026-04-28 01:10 39.54018 -120.39457 45076 ft 530 kts 172°
2026-04-28 01:10 39.46810 -120.37783 45078 ft 530 kts 172°
2026-04-28 01:11 39.39555 -120.36102 45075 ft 529 kts 172°
2026-04-28 01:11 39.32310 -120.34428 45076 ft 529 kts 172°
2026-04-28 01:12 39.25059 -120.32755 45064 ft 529 kts 172°
2026-04-28 01:12 39.17814 -120.31088 45084 ft 529 kts 173°
2026-04-28 01:13 39.10571 -120.29424 45084 ft 528 kts 172°
2026-04-28 01:13 38.99710 -120.26935 45070 ft 528 kts 173°
2026-04-28 01:14 38.92465 -120.25280 45074 ft 529 kts 173°
2026-04-28 01:14 38.85222 -120.23628 45079 ft 528 kts 173°
2026-04-28 01:15 38.78002 -120.21985 45073 ft 527 kts 173°
2026-04-28 01:15 38.70776 -120.20344 45077 ft 527 kts 173°
2026-04-28 01:16 38.63551 -120.18707 45081 ft 527 kts 173°
2026-04-28 01:16 38.56327 -120.17073 45072 ft 527 kts 173°
2026-04-28 01:17 38.49105 -120.15443 45064 ft 526 kts 173°
2026-04-28 01:17 38.41895 -120.13819 45077 ft 526 kts 173°
2026-04-28 01:18 38.34683 -120.12198 45074 ft 526 kts 173°
2026-04-28 01:18 38.27479 -120.10581 45074 ft 526 kts 173°
2026-04-28 01:19 38.21488 -120.09241 45077 ft 526 kts 173°
2026-04-28 01:19 38.13112 -120.07406 45070 ft 526 kts 174°
2026-04-28 01:20 38.05915 -120.05817 45074 ft 524 kts 174°
2026-04-28 01:20 37.98725 -120.04245 45080 ft 525 kts 174°
2026-04-28 01:21 37.91530 -120.02668 45062 ft 524 kts 174°
2026-04-28 01:21 37.85565 -120.01365 45074 ft 523 kts 174°
2026-04-28 01:22 37.78383 -119.99800 45069 ft 524 kts 174°
2026-04-28 01:22 37.71206 -119.98238 45065 ft 523 kts 174°
2026-04-28 01:23 37.64041 -119.96682 45064 ft 523 kts 174°
2026-04-28 01:23 37.56875 -119.95129 45058 ft 523 kts 174°
2026-04-28 01:24 37.49713 -119.93578 45063 ft 522 kts 174°
2026-04-28 01:24 37.42560 -119.92035 45058 ft 522 kts 174°
2026-04-28 01:25 37.35404 -119.90492 45060 ft 521 kts 174°
2026-04-28 01:25 37.28261 -119.88956 45061 ft 520 kts 174°
2026-04-28 01:26 37.21122 -119.87424 45057 ft 521 kts 174°
2026-04-28 01:26 37.13981 -119.85893 45035 ft 521 kts 174°
2026-04-28 01:27 37.06860 -119.84370 45059 ft 519 kts 174°
2026-04-28 01:27 36.99741 -119.82851 45059 ft 519 kts 174°
2026-04-28 01:28 36.92664 -119.81343 45043 ft 519 kts 175°
2026-04-28 01:28 36.85559 -119.79832 45064 ft 518 kts 175°
2026-04-28 01:29 36.78409 -119.78315 45060 ft 518 kts 175°
2026-04-28 01:29 36.71308 -119.76811 45069 ft 518 kts 175°
2026-04-28 01:30 36.64254 -119.75319 45068 ft 518 kts 175°
2026-04-28 01:30 36.57152 -119.73820 45066 ft 518 kts 175°
2026-04-28 01:31 36.50059 -119.72325 45056 ft 516 kts 175°
2026-04-28 01:31 36.42970 -119.70836 45060 ft 517 kts 175°
2026-04-28 01:32 36.35881 -119.69348 45058 ft 517 kts 175°
2026-04-28 01:32 36.28802 -119.67864 45061 ft 515 kts 175°
2026-04-28 01:33 36.21728 -119.66386 45058 ft 515 kts 175°
2026-04-28 01:33 36.14654 -119.64909 45058 ft 515 kts 175°
2026-04-28 01:34 36.07590 -119.63437 45056 ft 515 kts 175°
2026-04-28 01:34 36.00519 -119.62149 45040 ft 510 kts 181°
2026-04-28 01:35 35.93553 -119.62868 45047 ft 498 kts 197°
2026-04-28 01:35 35.86840 -119.64927 45065 ft 497 kts 198°
2026-04-28 01:36 35.80121 -119.66951 45063 ft 497 kts 198°
2026-04-28 01:36 35.73409 -119.69001 45059 ft 497 kts 198°
2026-04-28 01:37 35.66693 -119.71029 45041 ft 496 kts 198°
2026-04-28 01:37 35.60040 -119.73046 45051 ft 496 kts 198°
2026-04-28 01:38 35.53342 -119.75067 45050 ft 496 kts 198°
2026-04-28 01:38 35.46643 -119.77087 45051 ft 496 kts 198°
2026-04-28 01:39 35.39945 -119.79067 45042 ft 495 kts 196°
2026-04-28 01:39 35.32996 -119.79539 45042 ft 508 kts 180°
2026-04-28 01:40 35.26031 -119.77647 45048 ft 521 kts 165°
2026-04-28 01:40 35.19603 -119.73370 45042 ft 534 kts 149°
2026-04-28 01:41 35.13767 -119.67709 45052 ft 535 kts 147°
2026-04-28 01:41 35.07933 -119.62061 45049 ft 535 kts 147°
2026-04-28 01:42 35.02101 -119.56411 45036 ft 535 kts 147°
2026-04-28 01:42 34.96268 -119.50777 44305 ft 535 kts 147°
2026-04-28 01:43 34.93365 -119.47977 43617 ft 531 kts 147°
2026-04-28 01:43 34.90505 -119.45218 42930 ft 532 kts 148°
2026-04-28 01:43 34.87603 -119.42426 42237 ft 533 kts 148°
2026-04-28 01:43 34.84687 -119.39622 41527 ft 535 kts 148°
2026-04-28 01:44 34.81755 -119.36805 40827 ft 538 kts 149°
2026-04-28 01:44 34.78814 -119.33979 40120 ft 540 kts 149°
2026-04-28 01:44 34.75863 -119.31146 39411 ft 541 kts 149°
2026-04-28 01:44 34.72900 -119.28308 38690 ft 543 kts 149°
2026-04-28 01:45 34.69928 -119.25464 37914 ft 543 kts 149°
2026-04-28 01:45 34.66964 -119.22627 37203 ft 542 kts 148°
2026-04-28 01:45 34.64009 -119.19800 36490 ft 540 kts 148°
2026-04-28 01:45 34.61061 -119.16986 35785 ft 539 kts 147°
2026-04-28 01:46 34.58111 -119.14176 35071 ft 539 kts 147°
2026-04-28 01:46 34.55174 -119.11374 34363 ft 536 kts 147°
2026-04-28 01:46 34.52245 -119.08583 33622 ft 536 kts 146°
2026-04-28 01:46 34.49321 -119.05802 32913 ft 537 kts 147°
2026-04-28 01:47 34.46384 -119.03013 32214 ft 532 kts 147°
2026-04-28 01:47 34.43495 -119.00264 31530 ft 524 kts 147°
2026-04-28 01:47 34.40651 -118.97564 30846 ft 516 kts 146°
2026-04-28 01:47 34.37832 -118.94897 30172 ft 510 kts 146°
2026-04-28 01:48 34.35060 -118.92274 29464 ft 504 kts 146°
2026-04-28 01:48 34.32306 -118.89665 28781 ft 501 kts 146°
2026-04-28 01:48 34.29562 -118.87070 28131 ft 499 kts 146°
2026-04-28 01:48 34.26840 -118.84504 27475 ft 493 kts 146°
2026-04-28 01:49 34.23951 -118.82380 26801 ft 480 kts 160°
2026-04-28 01:49 34.20887 -118.80834 26208 ft 476 kts 162°
2026-04-28 01:49 34.17838 -118.79331 25580 ft 471 kts 162°
2026-04-28 01:49 34.14821 -118.77825 24954 ft 468 kts 162°
2026-04-28 01:50 34.11829 -118.76333 24330 ft 460 kts 163°
2026-04-28 01:50 34.08784 -118.75314 23733 ft 452 kts 171°
2026-04-28 01:50 34.05727 -118.74498 23110 ft 447 kts 172°
2026-04-28 01:50 34.02691 -118.73671 22529 ft 447 kts 171°
2026-04-28 01:51 33.99672 -118.72802 21940 ft 445 kts 170°
2026-04-28 01:51 33.96668 -118.71941 21354 ft 443 kts 171°
2026-04-28 01:51 33.93672 -118.71113 20773 ft 441 kts 171°
2026-04-28 01:51 33.90689 -118.70291 20186 ft 438 kts 171°
2026-04-28 01:52 33.87729 -118.69458 19617 ft 436 kts 171°
2026-04-28 01:52 33.84782 -118.68628 19049 ft 434 kts 171°
2026-04-28 01:52 33.81849 -118.67811 18478 ft 431 kts 171°
2026-04-28 01:52 33.78932 -118.67001 17814 ft 428 kts 170°
2026-04-28 01:53 33.76044 -118.66193 17246 ft 425 kts 171°
2026-04-28 01:53 33.73153 -118.65511 17003 ft 422 kts 175°
2026-04-28 01:53 33.70287 -118.64932 17002 ft 424 kts 174°
2026-04-28 01:53 33.67400 -118.64279 16830 ft 421 kts 173°
2026-04-28 01:54 33.64489 -118.63644 16483 ft 418 kts 174°
2026-04-28 01:54 33.61666 -118.63074 16123 ft 416 kts 175°
2026-04-28 01:54 33.58822 -118.62493 16020 ft 416 kts 174°
2026-04-28 01:54 33.55977 -118.61887 16023 ft 415 kts 174°
2026-04-28 01:55 33.53132 -118.61281 15810 ft 414 kts 174°
2026-04-28 01:55 33.50300 -118.60649 15459 ft 415 kts 171°
2026-04-28 01:55 33.47637 -118.59289 15047 ft 421 kts 152°
2026-04-28 01:55 33.45402 -118.57024 15003 ft 426 kts 135°
2026-04-28 01:56 33.43741 -118.54068 14831 ft 430 kts 121°
2026-04-28 01:56 33.42328 -118.50925 14459 ft 428 kts 119°
2026-04-28 01:56 33.40961 -118.47779 14046 ft 425 kts 119°
2026-04-28 01:56 33.39566 -118.44672 13591 ft 421 kts 120°
2026-04-28 01:57 33.38191 -118.41687 13169 ft 394 kts 120°
2026-04-28 01:57 33.37063 -118.38849 12741 ft 365 kts 109°
2026-04-28 01:57 33.36623 -118.35964 12424 ft 341 kts 97°
2026-04-28 01:57 33.36301 -118.33200 12111 ft 332 kts 98°
2026-04-28 01:58 33.35964 -118.30488 11795 ft 328 kts 98°
2026-04-28 01:58 33.35623 -118.27800 11473 ft 325 kts 98°
2026-04-28 01:58 33.35295 -118.25137 11155 ft 322 kts 98°
2026-04-28 01:58 33.34968 -118.22496 10833 ft 320 kts 98°
2026-04-28 01:59 33.34620 -118.19882 10503 ft 317 kts 99°
2026-04-28 01:59 33.34268 -118.17282 10197 ft 315 kts 98°
2026-04-28 01:59 33.33928 -118.14706 9878 ft 313 kts 98°
2026-04-28 01:59 33.33593 -118.12146 9543 ft 310 kts 98°
2026-04-28 02:00 33.33261 -118.09643 9237 ft 307 kts 98°
2026-04-28 02:00 33.32927 -118.07133 8938 ft 305 kts 98°
2026-04-28 02:00 33.32595 -118.04640 8633 ft 302 kts 98°
2026-04-28 02:00 33.32266 -118.02164 8335 ft 300 kts 98°
2026-04-28 02:01 33.31939 -117.99709 8038 ft 298 kts 98°
2026-04-28 02:01 33.31613 -117.97274 7742 ft 296 kts 98°
2026-04-28 02:01 33.31290 -117.94856 7449 ft 293 kts 98°
2026-04-28 02:01 33.30968 -117.92456 7159 ft 292 kts 98°
2026-04-28 02:02 33.30648 -117.90068 6867 ft 291 kts 98°
2026-04-28 02:02 33.30327 -117.87681 6580 ft 289 kts 98°
2026-04-28 02:02 33.30010 -117.85322 6286 ft 286 kts 98°
2026-04-28 02:02 33.29695 -117.82984 5993 ft 283 kts 98°
2026-04-28 02:03 33.29380 -117.80652 5708 ft 284 kts 98°
2026-04-28 02:03 33.29064 -117.78319 5430 ft 285 kts 98°
2026-04-28 02:03 33.28746 -117.75990 5146 ft 282 kts 98°
2026-04-28 02:03 33.28052 -117.73829 4942 ft 275 kts 123°
2026-04-28 02:04 33.26956 -117.71927 5022 ft 278 kts 124°
2026-04-28 02:04 33.25868 -117.70002 5023 ft 280 kts 124°
2026-04-28 02:04 33.24786 -117.68064 5018 ft 281 kts 124°
2026-04-28 02:04 33.23693 -117.66127 5013 ft 281 kts 124°
2026-04-28 02:05 33.22591 -117.64183 5022 ft 283 kts 124°
2026-04-28 02:05 33.21491 -117.62240 5018 ft 282 kts 124°
2026-04-28 02:05 33.20703 -117.60113 4873 ft 283 kts 100°
2026-04-28 02:05 33.20617 -117.57771 4638 ft 282 kts 88°
2026-04-28 02:06 33.20689 -117.55445 4513 ft 278 kts 86°
2026-04-28 02:06 33.20766 -117.53131 4516 ft 279 kts 86°
2026-04-28 02:06 33.20844 -117.50824 4517 ft 280 kts 86°
2026-04-28 02:06 33.20926 -117.48501 4510 ft 281 kts 86°
2026-04-28 02:07 33.21005 -117.46185 4508 ft 277 kts 86°
2026-04-28 02:07 33.21083 -117.43883 4318 ft 276 kts 86°
2026-04-28 02:07 33.21163 -117.41675 4094 ft 258 kts 86°
2026-04-28 02:07 33.21235 -117.39588 3999 ft 246 kts 86°
2026-04-28 02:08 33.21305 -117.37553 3997 ft 244 kts 86°
2026-04-28 02:08 33.21370 -117.35537 3993 ft 242 kts 86°
2026-04-28 02:08 33.21436 -117.33517 4002 ft 245 kts 86°
2026-04-28 02:08 33.21501 -117.31484 4004 ft 245 kts 86°
2026-04-28 02:09 33.21570 -117.29451 4001 ft 244 kts 86°
2026-04-28 02:09 33.21619 -117.28085 4003 ft 243 kts 86°
2026-04-28 02:09 33.21690 -117.26061 3999 ft 246 kts 86°
2026-04-28 02:09 33.21763 -117.24017 4002 ft 244 kts 86°
2026-04-28 02:10 33.21832 -117.21993 4003 ft 244 kts 86°
2026-04-28 02:10 33.21904 -117.19974 4004 ft 245 kts 86°
2026-04-28 02:10 33.21974 -117.17943 3997 ft 246 kts 86°
2026-04-28 02:10 33.22047 -117.15911 3999 ft 244 kts 86°
2026-04-28 02:11 33.22135 -117.13895 3991 ft 242 kts 85°
2026-04-28 02:11 33.22222 -117.11861 4004 ft 245 kts 85°
2026-04-28 02:11 33.22300 -117.09846 3989 ft 247 kts 86°
2026-04-28 02:11 33.22377 -117.07817 3992 ft 244 kts 86°
2026-04-28 02:12 33.22447 -117.05805 3987 ft 243 kts 88°
2026-04-28 02:12 33.21969 -117.03863 3679 ft 248 kts 123°
2026-04-28 02:12 33.20693 -117.02592 3599 ft 236 kts 150°
2026-04-28 02:12 33.19126 -117.02174 3535 ft 228 kts 190°
2026-04-28 02:13 33.17838 -117.02910 3560 ft 189 kts 220°
2026-04-28 02:13 33.16849 -117.03901 3576 ft 186 kts 232°
2026-04-28 02:13 33.16476 -117.05269 3602 ft 175 kts 264°
2026-04-28 02:13 33.16258 -117.06710 3610 ft 177 kts 261°
2026-04-28 02:14 33.16026 -117.08145 3606 ft 178 kts 261°
2026-04-28 02:14 33.15789 -117.09615 3489 ft 181 kts 261°
2026-04-28 02:14 33.15554 -117.11073 3226 ft 177 kts 261°
2026-04-28 02:14 33.15326 -117.12484 2959 ft 163 kts 261°
2026-04-28 02:15 33.14946 -117.14822 2545 ft 129 kts 261°
2026-04-28 02:15 33.14783 -117.15833 2382 ft 121 kts 261°
2026-04-28 02:15 33.14626 -117.16810 2213 ft 119 kts 262°
2026-04-28 02:16 33.14471 -117.17767 2036 ft 116 kts 262°
2026-04-28 02:16 33.14318 -117.18721 1880 ft 117 kts 264°
2026-04-28 02:16 33.14166 -117.19657 1713 ft 113 kts 263°
2026-04-28 02:16 33.14017 -117.20589 1546 ft 116 kts 262°
2026-04-28 02:17 33.13863 -117.21553 1380 ft 120 kts 263°
2026-04-28 02:17 33.13706 -117.22522 1203 ft 117 kts 262°
2026-04-28 02:17 33.13553 -117.23462 1060 ft 115 kts 262°
2026-04-28 02:17 33.13404 -117.24410 888 ft 117 kts 261°
2026-04-28 02:18 33.13258 -117.25367 691 ft 117 kts 261°
2026-04-28 02:18 33.13105 -117.26306 551 ft 117 kts 260°
2026-04-28 02:18 33.12946 -117.27264 357 ft 116 kts 261°
2026-04-28 02:18 33.12810 -117.28103 330 ft 75 kts 259°
2026-04-28 02:19 33.12751 -117.28469 328 ft 34 kts 259°
2026-04-28 02:19 33.12718 -117.28673 330 ft 21 kts 259°
2026-04-28 02:19 33.12690 -117.28775 327 ft 10 kts 212°
2026-04-28 02:19 33.12639 -117.28748 329 ft 8 kts 115°
2026-04-28 02:20 33.12635 -117.28671 330 ft 12 kts 82°
2026-04-28 02:20 33.12652 -117.28566 328 ft 13 kts 79°
2026-04-28 02:20 33.12669 -117.28462 329 ft 13 kts 78°
2026-04-28 02:20 33.12686 -117.28357 329 ft 14 kts 79°
2026-04-28 02:21 33.12704 -117.28248 329 ft 13 kts 79°
2026-04-28 02:21 33.12720 -117.28146 329 ft 12 kts 79°
2026-04-28 02:21 33.12735 -117.28053 329 ft 11 kts 79°
2026-04-28 02:21 33.12749 -117.27967 328 ft 10 kts 79°
2026-04-28 02:22 33.12760 -117.27899 328 ft 8 kts 79°
2026-04-28 02:22 33.12767 -117.27846 326 ft 4 kts 92°
2026-04-28 02:22 33.12749 -117.27836 325 ft 4 kts 169°
2026-04-28 02:22 33.12739 -117.27846 327 ft 3 kts 261°
2026-04-28 02:23 33.12736 -117.27860 328 ft 0 kts 259°